Tracking 30995 objects as of 7-Jul-2025
HD Live streaming from Space Station
objects crossing your sky now

FENGYUN 1C DEB

Track FENGYUN 1C DEB now!
10-day predictions


NORAD ID: 33728
Int'l Code: 1999-025DHR
Perigee: 496.5 km
Apogee: 711.7 km
Inclination: 99.0 °
Period: 96.6 minutes
Semi major axis: 6975 km
RCS: 0.0056 m2 (small)
Launch date: May 10, 1999
Source: People's Republic of China (PRC)
Launch site: Taiyaun Space Center, China (TSC)

Note: This is SATELLITE DEBRIS
Your satellite tracking list
Your tracking list is empty




NASA's NSSDC Master Catalog

Two Line Element Set (TLE):
1 33728U 99025DHR 25187.54279251  .00004456  00000-0  37259-3 0  9994
2 33728  98.9997 221.2608 0154280   5.9265 354.3728 14.90310874959275
Source of the keplerian elements: AFSPC